FW4287 Weather Reports


Display with metric or nautical units.
time (UTC)temp
F
wind
direction
speed
MPH
gust
MPH
rain 1hr
in
rain 24hr
in
rain mn
in
humidity
%
barometer
mb
20260507033150 60 187 8.0 20.0 0.00 0.00 0.00 64 1019.9
20260507031530 60 198 7.0 14.0 0.00 0.00 0.00 63 1019.8
20260507030031 61 194 8.0 15.0 0.00 0.00 0.00 61 1019.8
20260507023035 63 206 9.0 22.0 0.00 0.00 0.00 57 1019.6
20260507014528 65 213 11.0 18.0 0.00 0.00 0.00 54 1019.4
20260507013030 66 210 11.0 18.0 0.00 0.00 0.00 53 1019.4
20260507011530 65 215 11.0 18.0 0.00 0.00 0.00 53 1019.4
20260507010030 66 212 11.0 18.0 0.00 0.00 0.00 51 1019.3
20260507004530 68 208 12.0 18.0 0.00 0.00 0.00 47 1019.2
20260507003032 69 206 13.0 21.0 0.00 0.00 0.00 46 1019.1
20260507001533 69 204 13.0 19.0 0.00 0.00 0.00 45 1019.0
20260507000104 69 205 14.0 22.0 0.00 0.00 0.00 44 1018.9
20260506234531 70 206 12.0 20.0 0.00 0.00 0.00 44 1018.8
20260506233104 70 212 12.0 19.0 0.00 0.00 0.00 43 1018.8
20260506230031 70 217 13.0 20.0 0.00 0.00 0.00 45 1018.8
20260506224532 71 212 13.0 23.0 0.00 0.00 0.00 45 1018.8
20260506223104 71 220 11.0 20.0 0.00 0.00 0.00 45 1018.8
20260506221534 72 222 11.0 20.0 0.00 0.00 0.00 45 1018.9
20260506220029 71 218 10.0 19.0 0.00 0.00 0.00 46 1018.9
20260506214652 72 224 11.0 21.0 0.00 0.00 0.00 46 1018.9
20260506213029 71 224 8.0 19.0 0.00 0.00 0.00 47 1018.8
20260506211529 70 191 11.0 20.0 0.00 0.00 0.00 49 1018.9
20260506210029 70 215 11.0 21.0 0.00 0.00 0.00 50 1019.0
20260506204607 70 197 11.0 20.0 0.00 0.00 0.00 50 1019.2
20260506201540 70 198 8.0 16.0 0.00 0.00 0.00 51 1019.1
20260506194532 69 209 8.0 13.0 0.00 0.00 0.00 53 1019.1
20260506193029 69 169 9.0 18.0 0.00 0.00 0.00 55 1019.2
20260506184531 68 227 6.0 14.0 0.00 0.00 0.00 57 1019.3
20260506183028 67 199 7.0 13.0 0.00 0.00 0.00 59 1019.2
20260506180109 67 271 6.0 11.0 0.00 0.00 0.00 60 1019.3
20260506173028 65 233 9.0 14.0 0.00 0.00 0.00 61 1019.2
20260506170031 63 211 11.0 19.0 0.00 0.00 0.00 65 1019.3
20260506164604 62 212 11.0 19.0 0.00 0.00 0.00 66 1019.2
20260506163031 62 205 10.0 19.0 0.00 0.00 0.00 68 1019.8
20260506160030 61 196 11.0 17.0 0.00 0.00 0.00 69 1019.5
20260506154531 60 197 10.0 20.0 0.00 0.00 0.00 69 1019.4
20260506153029 60 214 11.0 21.0 0.00 0.00 0.00 70 1019.3
20260506151529 59 213 12.0 21.0 0.00 0.00 0.00 72 1019.1
20260506150029 58 197 9.0 18.0 0.00 0.00 0.00 73 1019.4
20260506144529 58 193 8.0 15.0 0.00 0.00 0.00 73 1019.4
20260506143104 57 197 9.0 19.0 0.00 0.00 0.00 75 1019.4
20260506141530 57 199 10.0 21.0 0.00 0.00 0.00 76 1019.3
20260506140032 56 191 10.0 19.0 0.00 0.00 0.00 77 1019.3
20260506134534 55 200 12.0 21.0 0.00 0.00 0.00 79 1019.1
20260506131538 54 191 7.0 13.0 0.00 0.00 0.00 81 1019.0
20260506130028 54 175 6.0 16.0 0.00 0.00 0.00 82 1018.9
20260506124526 53 173 5.0 19.0 0.00 0.00 0.00 82 1018.8
20260506121653 52 158 4.0 11.0 0.00 0.00 0.00 83 1018.5
20260506120108 53 155 4.0 10.0 0.00 0.00 0.00 83 1018.4
20260506114653 53 144 3.0 7.0 0.00 0.00 0.00 83 1018.3
20260506113028 53 142 6.0 11.0 0.00 0.00 0.00 83 1018.1
20260506104542 52 157 3.0 7.0 0.00 0.00 0.00 88 1017.7
20260506101531 49 144 2.0 7.0 0.00 0.00 0.00 94 1017.4
20260506100053 48 135 0.0 5.0 0.00 0.00 0.00 94 1017.4
20260506094532 48 135 0.0 4.0 0.00 0.00 0.00 95 1017.3
20260506093030 47 135 1.0 5.0 0.00 0.00 0.00 95 1017.2
20260506091528 47 135 0.0 2.0 0.00 0.00 0.00 96 1017.2
20260506090033 46 152 0.0 5.0 0.00 0.00 0.00 96 1017.1
20260506083028 46 214 0.0 4.0 0.00 0.00 0.00 96 1016.8
20260506081530 47 225 0.0 1.0 0.00 0.00 0.00 96 1016.8
20260506073032 46 207 0.0 4.0 0.00 0.00 0.00 95 1016.5
20260506071528 47 234 0.0 4.0 0.00 0.00 0.00 94 1016.4
20260506061646 48 270 0.0 0.0 0.00 0.00 0.00 92 1016.1
20260506044605 52 67 0.0 0.0 0.00 0.00 0.00 86 1015.4
20260506043029 53 67 0.0 2.0 0.00 0.00 0.00 83 1015.3
20260506041605 55 67 1.0 5.0 0.00 0.00 0.00 82 1015.2
20260506040033 55 33 2.0 6.0 0.00 0.00 0.00 80 1015.1
20260506034607 57 6 1.0 6.0 0.00 0.00 0.00 78 1014.8